Wind_Speed
13 13 14 13 12 11 11 11 11 10 9 9 9 9 9 9 8 8 8 9 9 9 8 7 6 5 5 4 4 3 4 4 4 4 4 4 4 4 3 2 3 4 4 4 4 4 3 4 4
13 13 14 13 12 12 12 12 11 11 10 10 9 9 8 8 8 8 7 8 9 9 9 8 7 6 5 4 4 4 4 4 3 4 4 4 4 4 3 3 4 4 4 4 4 4 4 3 3
14 13 14 14 13 13 12 12 12 12 11 10 9 8 8 8 8 8 8 9 9 9 9 7 7 7 6 5 5 5 4 3 3 4 4 4 4 4 4 4 4 4 3 3 3 3 3 3 2
15 14 14 14 14 14 13 12 12 12 11 10 9 9 8 9 9 8 8 9 9 9 8 7 7 7 6 5 5 5 5 4 4 4 4 4 4 4 5 5 4 3 3 3 2 2 2 2 2
14 14 14 14 14 14 14 13 12 11 11 10 10 9 9 9 9 9 8 9 9 8 8 7 7 7 7 6 6 6 5 5 5 5 4 4 4 5 4 4 3 3 3 3 2 2 2 2 2
13 14 15 15 16 16 15 14 13 12 11 10 10 9 9 10 10 9 9 9 9 8 7 7 7 7 7 6 6 6 5 5 5 5 5 4 4 4 4 4 3 3 3 2 2 2 1 2 2
13 14 15 15 16 16 15 14 13 13 11 11 10 10 10 10 10 10 10 10 9 8 7 7 7 7 7 7 6 6 6 6 5 5 5 5 4 3 3 3 3 3 3 3 3 2 2 2 2
14 15 16 15 15 15 14 13 13 13 12 12 12 11 10 11 11 11 11 11 9 9 8 8 8 8 7 7 7 6 6 6 6 6 5 4 3 3 3 2 2 2 2 3 3 3 2 1 1
14 14 15 15 14 14 13 12 12 12 13 13 13 12 11 11 12 12 12 11 9 9 9 9 9 9 8 7 7 7 7 6 6 5 5 4 3 2 3 2 2 2 2 2 2 2 2 1 1
14 14 15 15 14 13 12 12 11 12 13 14 13 13 12 12 12 11 11 11 9 9 9 8 9 9 8 7 7 7 6 6 6 6 5 4 3 2 2 2 1 1 1 2 2 2 1 1 1
14 14 15 14 12 12 12 13 12 12 13 14 14 13 12 12 11 12 12 11 10 10 9 9 8 8 7 7 7 7 6 6 6 6 5 5 4 3 2 2 2 2 2 2 1 1 2 1 1
13 13 13 12 12 12 13 13 12 13 13 13 14 14 13 13 12 12 11 11 11 10 10 9 8 8 7 7 7 7 6 6 6 6 5 5 4 4 3 2 2 2 1 1 1 1 2 1 1
12 14 13 13 12 12 13 12 11 12 13 13 14 13 13 12 12 12 12 12 11 10 9 9 8 8 7 7 6 7 6 6 6 5 5 4 4 4 3 3 2 2 1 1 1 1 1 1 1
14 15 14 12 11 11 12 11 11 12 13 14 14 14 13 13 12 12 12 12 12 10 10 9 9 8 7 7 6 6 6 6 6 5 4 4 4 3 3 3 3 3 3 2 2 2 1 1 1
13 13 13 13 12 12 11 11 12 12 13 14 14 14 14 14 14 13 13 13 12 11 10 9 9 8 7 6 6 6 6 6 6 6 5 5 4 3 3 3 3 3 3 3 3 2 2 1 1
13 12 13 13 13 13 12 12 12 12 12 12 13 13 14 15 14 14 13 13 13 11 10 10 9 9 8 6 6 6 6 5 6 6 5 4 4 3 3 3 3 2 2 2 3 3 2 2 2
10 10 10 10 11 11 10 11 12 12 12 12 12 12 13 14 14 14 13 13 12 12 11 10 10 10 10 8 7 7 7 6 6 6 5 4 4 3 3 3 2 2 2 2 2 2 2 2 2
7 8 8 8 8 9 8 8 9 11 11 11 11 11 12 13 13 13 13 13 12 12 11 10 11 10 10 10 9 8 7 7 6 6 5 5 4 3 3 3 2 2 2 2 3 3 3 3 2
5 6 5 5 6 6 6 7 7 8 9 10 11 12 12 12 12 12 12 12 12 11 11 10 10 10 10 10 9 8 7 7 6 6 6 5 5 4 3 3 2 2 2 2 2 3 3 4 3
3 3 2 2 4 4 4 5 5 6 6 7 9 10 11 12 12 12 12 12 12 11 11 11 10 10 10 10 9 9 8 8 7 7 6 6 5 4 4 3 3 3 2 2 3 3 4 3 4
2 1 2 2 3 3 4 5 4 5 5 6 7 8 10 11 11 12 12 11 12 11 10 10 10 10 10 9 9 9 8 7 7 7 6 6 5 5 5 3 3 3 3 3 4 3 3 3 3
4 2 3 3 4 4 3 5 5 6 5 6 7 7 7 9 10 10 11 11 11 11 10 10 9 9 9 9 8 8 8 7 7 6 6 6 6 5 5 4 4 4 4 4 4 4 4 4 3
5 3 3 3 4 3 2 4 5 7 7 6 6 7 6 7 8 9 10 10 11 11 10 10 9 9 9 10 9 8 8 8 7 6 6 6 6 6 6 5 5 4 4 5 5 4 4 4 5
5 5 4 4 4 3 3 5 6 7 7 6 7 7 7 6 7 8 9 10 10 11 11 10 10 10 10 10 9 9 9 8 7 7 6 6 6 7 7 6 6 5 4 5 5 5 5 5 5
7 6 5 4 4 5 4 5 5 6 6 7 7 7 7 8 8 8 9 10 10 11 11 10 11 11 11 10 10 9 8 8 8 7 7 7 8 7 7 6 6 5 5 5 5 5 5 5 5
7 7 6 5 5 5 6 5 4 5 6 6 7 8 8 9 9 9 9 9 10 11 11 11 11 11 11 11 10 9 9 8 8 8 8 8 9 8 7 7 7 7 6 6 6 6 6 6 6
9 8 7 7 7 7 7 6 6 4 5 6 7 9 10 9 10 11 10 10 10 11 11 11 11 11 11 11 10 10 9 9 8 9 9 9 8 8 8 8 8 7 6 6 6 7 6 6 6
10 9 9 9 8 9 8 7 7 7 7 7 8 8 9 10 11 12 11 11 11 11 11 11 11 11 11 11 11 10 10 10 10 9 9 9 9 9 9 9 8 7 7 7 7 7 7 7 7
14 14 13 12 12 11 11 9 8 9 9 9 9 9 9 11 12 12 12 12 12 12 13 13 14 13 13 13 12 11 11 10 11 10 10 10 10 10 10 10 9 8 7 7 8 8 8 8 8
16 16 15 14 13 14 14 11 10 11 11 12 11 11 11 11 12 12 13 13 13 14 14 15 15 15 15 14 13 12 12 12 11 11 11 11 11 11 10 10 10 8 8 8 8 8 8 9 9
Wind_Direction
89 94 90 83 75 72 68 61 56 56 59 56 52 48 50 53 55 51 47 50 51 49 45 47 50 52 55 52 52 48 47 42 53 65 63 75 75 81 82 84 87 96 106 110 113 103 108 110 109
84 91 86 81 73 70 66 59 56 62 62 61 57 53 54 59 57 52 46 48 46 45 44 51 56 59 55 50 47 43 42 38 51 66 65 70 75 80 80 86 98 89 101 110 106 105 109 109 106
78 80 78 75 73 65 62 56 53 62 61 62 59 54 57 62 58 49 44 46 43 44 43 49 56 56 57 59 58 49 48 46 63 68 65 73 77 73 75 89 100 93 100 116 111 111 111 106 111
74 73 70 71 67 60 57 52 54 58 58 59 59 57 61 64 63 53 44 43 42 40 45 49 51 53 59 64 61 52 56 47 57 67 63 80 82 73 82 83 100 101 106 113 107 120 115 98 88
77 69 67 67 65 59 57 54 55 53 51 55 58 58 62 67 64 56 45 43 45 41 42 43 47 49 54 59 58 57 51 48 54 67 63 71 74 73 86 91 96 92 99 101 95 99 103 97 86
81 71 70 67 62 57 55 53 51 49 49 50 55 57 56 60 58 56 50 45 46 47 46 45 48 45 46 59 58 54 54 56 54 61 69 68 66 74 83 93 99 89 89 92 76 75 74 78 78
82 73 71 68 61 55 52 50 50 50 45 47 52 56 55 56 53 50 47 49 48 47 48 50 51 50 47 54 56 55 63 58 54 58 66 70 68 63 71 89 90 85 80 81 83 85 89 87 97
75 68 63 64 61 57 54 49 49 51 46 48 52 57 55 55 49 46 44 44 44 44 53 58 54 53 48 50 52 57 59 57 54 58 61 69 68 75 70 76 83 90 85 83 80 84 87 87 96
73 67 64 64 58 56 55 53 50 48 47 49 54 55 54 51 47 45 43 42 45 49 55 53 54 57 52 49 49 51 52 51 50 49 52 53 58 72 72 69 75 108 104 88 79 89 79 85 72
77 73 70 66 59 59 59 58 53 50 50 50 52 51 50 48 48 45 42 41 45 47 46 48 53 57 54 49 51 51 53 52 49 47 40 41 45 55 66 50 52 79 106 79 65 69 67 64 63
80 78 76 69 58 54 57 58 56 51 46 48 50 48 47 48 45 42 42 41 41 40 44 50 52 55 56 54 54 52 51 49 46 43 37 43 41 43 58 56 48 62 74 72 45 46 48 37 60
78 78 79 71 60 53 54 57 53 50 47 48 48 45 44 44 44 42 41 39 41 43 47 48 45 50 54 53 52 51 44 42 41 36 43 44 40 39 38 47 62 74 61 43 8 14 15 16 16
78 79 81 74 66 58 53 54 53 48 48 45 45 44 43 44 42 41 41 39 41 45 48 48 47 50 53 53 52 49 45 42 40 41 41 42 42 41 37 37 68 67 60 34 3 359 12 355 335
81 82 80 76 68 61 52 49 50 48 49 48 46 44 41 41 43 43 41 39 41 44 45 47 46 49 53 52 51 46 42 37 37 34 32 43 48 50 51 54 65 62 57 46 23 13 17 353 349
85 82 77 72 63 54 50 47 46 48 51 47 44 41 41 42 42 42 39 38 39 43 43 45 46 49 50 45 41 40 36 30 30 30 35 42 43 45 51 62 67 60 53 43 29 24 25 19 1
83 76 71 67 60 52 46 43 47 52 48 45 44 42 41 41 41 40 38 38 39 41 43 45 44 44 45 41 36 32 27 21 23 26 26 31 47 48 46 59 61 56 46 36 18 19 23 11 349
84 68 58 55 58 53 47 41 47 49 46 44 43 42 40 37 37 36 35 37 38 40 43 43 44 44 43 41 38 34 32 29 28 27 24 28 38 43 39 46 43 36 28 17 1 9 358 340 338
73 64 53 39 45 49 49 43 42 49 49 44 44 42 38 37 34 34 33 34 37 38 40 42 44 46 42 40 40 37 34 31 28 29 34 34 28 26 22 22 25 23 14 4 2 350 341 331 331
72 72 57 28 22 29 32 33 36 40 42 39 45 41 37 35 31 31 31 31 32 36 39 41 42 43 40 39 35 31 29 25 21 22 26 23 14 16 7 12 3 358 341 338 329 324 323 323 319
73 51 33 7 0 4 10 16 19 23 26 39 41 40 34 32 30 29 29 29 29 33 37 37 39 39 36 34 31 27 23 21 16 12 15 14 9 8 5 360 1 346 329 319 317 311 312 315 316
222 311 333 346 329 321 330 351 10 7 10 36 36 35 31 32 33 29 28 27 27 30 33 33 34 33 29 27 24 22 18 18 16 12 10 7 6 2 353 330 331 325 321 320 320 322 311 312 319
245 257 288 299 312 320 327 346 359 357 5 26 26 21 26 28 28 28 26 24 23 24 30 28 24 20 17 15 17 18 12 10 12 13 12 7 1 354 343 331 321 322 322 317 313 307 305 310 309
241 256 266 290 305 314 351 354 4 1 357 9 9 9 11 18 27 24 21 19 18 16 18 19 20 16 9 10 7 9 8 4 5 3 0 354 346 340 333 333 325 316 307 303 300 299 305 300 298
241 245 242 265 283 301 351 353 9 356 359 360 356 357 6 9 14 15 15 14 14 11 11 11 12 10 8 7 5 1 1 359 358 354 349 342 333 326 320 318 314 305 293 288 291 297 291 289 291
233 232 230 247 290 316 327 332 355 358 355 358 360 357 360 358 4 7 8 6 5 6 6 4 5 4 3 3 2 359 354 356 354 349 343 337 332 326 321 311 309 301 288 279 278 281 279 281 281
234 237 245 273 293 315 308 302 328 344 355 0 1 359 357 360 1 356 354 355 355 354 357 357 357 358 357 356 355 356 351 351 349 343 338 333 332 327 321 312 306 302 290 279 271 275 279 276 277
224 232 251 265 275 289 304 299 294 317 333 338 347 356 351 345 343 343 347 350 348 348 348 349 347 346 345 348 348 345 343 343 343 339 336 333 332 327 318 310 308 305 295 286 280 280 279 274 280
232 236 244 253 267 282 290 299 301 287 304 317 326 339 335 329 332 334 335 341 338 337 341 341 340 338 336 336 335 336 335 336 339 335 330 327 323 322 323 318 311 304 297 290 288 286 276 280 280
238 239 244 251 258 268 275 287 290 285 286 296 304 312 315 317 319 321 329 333 333 331 333 334 331 330 330 328 327 324 321 322 324 325 321 317 315 314 315 312 308 299 294 290 287 284 280 281 284
242 246 248 252 256 262 269 275 281 274 278 284 291 296 299 304 307 310 315 322 323 324 326 326 327 323 323 323 320 319 320 320 318 315 312 310 309 310 311 308 305 296 293 289 285 283 283 282 286
Height
5899 5899 5899 5900 5900 5899 5898 5897 5897 5897 5897 5897 5896 5896 5896 5896 5896 5897 5894 5893 5892 5891 5890 5890 5889 5889 5889 5888 5888 5888 5888 5887 5887 5887 5886 5886 5885 5885 5884 5884 5883 5883 5883 5883 5883 5883 5883 5883 5882
5901 5900 5901 5901 5900 5900 5899 5898 5898 5899 5898 5898 5898 5897 5897 5896 5896 5895 5894 5893 5892 5892 5891 5891 5890 5890 5889 5889 5888 5888 5888 5888 5887 5887 5887 5886 5886 5885 5885 5884 5884 5884 5884 5884 5884 5884 5883 5883 5883
5902 5902 5903 5902 5901 5901 5900 5900 5900 5899 5899 5899 5899 5898 5898 5897 5896 5895 5895 5894 5893 5893 5892 5891 5891 5890 5890 5889 5889 5889 5889 5888 5888 5888 5887 5887 5886 5886 5885 5885 5885 5885 5885 5885 5885 5884 5884 5884 5883
5905 5905 5905 5904 5902 5902 5902 5902 5901 5901 5901 5900 5900 5899 5899 5898 5898 5897 5896 5895 5894 5893 5893 5892 5892 5891 5891 5890 5890 5889 5889 5889 5888 5888 5887 5887 5887 5886 5886 5886 5886 5885 5885 5885 5885 5885 5885 5884 5883
5907 5907 5906 5904 5904 5904 5903 5903 5903 5902 5902 5901 5901 5900 5900 5899 5898 5897 5896 5896 5895 5894 5894 5893 5892 5892 5891 5891 5891 5890 5890 5889 5888 5888 5888 5887 5887 5887 5887 5886 5886 5886 5886 5886 5886 5885 5885 5884 5884
5909 5908 5908 5906 5906 5906 5905 5904 5904 5904 5903 5902 5902 5901 5901 5900 5899 5898 5897 5896 5895 5895 5894 5893 5893 5892 5892 5891 5891 5890 5890 5889 5889 5889 5888 5888 5888 5888 5887 5887 5887 5886 5886 5886 5886 5886 5886 5885 5885
5911 5910 5909 5908 5908 5907 5907 5906 5906 5905 5904 5903 5902 5902 5901 5900 5899 5899 5898 5897 5896 5896 5895 5894 5893 5893 5893 5892 5891 5891 5890 5890 5889 5889 5889 5888 5888 5888 5887 5887 5887 5887 5886 5886 5886 5886 5886 5885 5885
5912 5912 5910 5910 5910 5909 5909 5908 5907 5906 5905 5904 5903 5902 5902 5902 5900 5899 5899 5898 5897 5896 5895 5895 5894 5894 5893 5892 5892 5892 5891 5890 5890 5889 5889 5888 5888 5888 5888 5888 5887 5887 5887 5887 5886 5886 5885 5885 5885
5914 5915 5913 5912 5912 5912 5911 5910 5909 5908 5907 5906 5905 5904 5903 5903 5902 5901 5900 5899 5898 5897 5897 5896 5895 5894 5894 5893 5893 5892 5892 5891 5890 5890 5889 5889 5889 5888 5888 5887 5887 5887 5886 5886 5886 5886 5886 5885 5885
5915 5915 5914 5914 5914 5914 5913 5912 5911 5910 5909 5908 5907 5906 5905 5904 5903 5902 5901 5900 5899 5899 5898 5897 5896 5895 5895 5894 5893 5893 5892 5892 5891 5890 5890 5889 5889 5888 5888 5888 5887 5886 5886 5886 5886 5886 5886 5885 5885
5917 5916 5916 5916 5916 5915 5915 5914 5913 5912 5911 5910 5909 5908 5907 5906 5905 5904 5903 5902 5900 5899 5898 5897 5897 5896 5896 5895 5894 5894 5893 5892 5891 5891 5890 5889 5888 5888 5888 5888 5887 5886 5886 5886 5886 5886 5885 5885 5885
5919 5918 5918 5918 5918 5917 5917 5916 5915 5914 5914 5913 5911 5910 5908 5907 5906 5905 5904 5903 5901 5900 5899 5898 5897 5897 5896 5896 5895 5894 5893 5892 5891 5890 5890 5889 5888 5888 5888 5887 5887 5886 5886 5886 5886 5886 5885 5885 5884
5922 5921 5920 5920 5920 5920 5919 5918 5918 5916 5916 5914 5913 5911 5910 5909 5908 5907 5905 5904 5902 5901 5900 5899 5898 5897 5896 5896 5895 5894 5893 5892 5891 5891 5890 5889 5888 5888 5887 5887 5887 5887 5886 5886 5886 5885 5885 5884 5884
5923 5923 5922 5922 5922 5922 5921 5920 5919 5918 5917 5916 5915 5913 5912 5911 5909 5908 5906 5905 5903 5902 5901 5900 5899 5898 5897 5896 5895 5894 5893 5892 5891 5890 5890 5889 5888 5888 5887 5887 5887 5887 5886 5885 5885 5885 5884 5884 5883
5924 5925 5925 5924 5924 5923 5923 5922 5921 5920 5919 5918 5917 5915 5914 5912 5910 5909 5907 5906 5904 5903 5902 5900 5899 5898 5897 5896 5895 5894 5893 5892 5892 5891 5890 5889 5888 5888 5887 5887 5887 5887 5886 5886 5885 5884 5884 5883 5883
5926 5926 5926 5926 5925 5925 5926 5924 5922 5921 5920 5919 5918 5917 5915 5914 5912 5910 5908 5907 5905 5904 5902 5901 5900 5898 5897 5896 5895 5894 5893 5893 5892 5891 5889 5888 5888 5887 5887 5887 5887 5886 5886 5886 5885 5884 5884 5883 5882
5927 5927 5927 5927 5926 5926 5926 5925 5924 5922 5921 5920 5920 5919 5917 5915 5913 5911 5909 5908 5907 5905 5903 5902 5901 5899 5898 5897 5896 5895 5894 5893 5892 5890 5889 5888 5888 5887 5887 5887 5886 5886 5886 5885 5885 5884 5883 5883 5882
5928 5928 5928 5928 5928 5927 5927 5926 5924 5923 5923 5922 5921 5920 5919 5917 5915 5913 5911 5909 5908 5906 5905 5903 5902 5900 5899 5897 5896 5895 5894 5893 5892 5890 5889 5888 5887 5887 5886 5886 5886 5885 5885 5884 5884 5884 5883 5882 5882
5928 5928 5928 5928 5928 5928 5928 5926 5925 5924 5923 5923 5922 5921 5920 5918 5917 5915 5912 5910 5909 5907 5906 5904 5903 5901 5900 5898 5897 5896 5894 5893 5892 5890 5889 5888 5887 5886 5886 5885 5885 5884 5884 5883 5883 5883 5882 5882 5881
5928 5928 5928 5928 5928 5928 5928 5927 5926 5924 5924 5923 5922 5922 5921 5919 5917 5916 5914 5912 5910 5908 5907 5905 5904 5902 5901 5899 5898 5896 5895 5893 5892 5890 5889 5888 5887 5886 5885 5884 5884 5883 5883 5883 5882 5881 5881 5880 5880
5929 5929 5929 5929 5928 5927 5927 5927 5926 5925 5924 5923 5922 5922 5921 5920 5918 5916 5915 5913 5911 5909 5907 5906 5905 5903 5902 5900 5898 5896 5895 5893 5892 5890 5889 5888 5887 5885 5884 5884 5883 5882 5882 5882 5881 5881 5880 5879 5879
5928 5929 5929 5928 5928 5927 5927 5926 5926 5925 5924 5923 5922 5922 5920 5919 5918 5917 5915 5914 5912 5910 5908 5907 5905 5904 5902 5900 5898 5897 5895 5893 5892 5890 5889 5888 5886 5885 5884 5883 5882 5881 5880 5880 5880 5879 5878 5878 5878
5928 5928 5929 5928 5927 5927 5926 5926 5926 5925 5923 5923 5922 5921 5919 5919 5918 5917 5916 5914 5913 5910 5908 5907 5905 5904 5902 5900 5898 5896 5895 5893 5891 5890 5888 5887 5886 5884 5883 5881 5880 5879 5879 5878 5878 5878 5877 5877 5876
5927 5927 5928 5927 5927 5927 5926 5926 5925 5924 5923 5923 5922 5920 5919 5919 5918 5916 5916 5914 5913 5911 5909 5907 5905 5904 5902 5900 5898 5896 5894 5892 5891 5889 5888 5886 5884 5883 5881 5880 5879 5878 5877 5877 5876 5876 5876 5875 5875
5926 5926 5927 5926 5926 5926 5925 5925 5925 5924 5923 5922 5921 5920 5919 5918 5917 5916 5915 5914 5912 5910 5909 5907 5905 5904 5902 5899 5897 5895 5893 5892 5890 5888 5887 5885 5883 5881 5880 5878 5877 5876 5875 5875 5874 5874 5874 5873 5873
5924 5925 5926 5926 5925 5925 5924 5923 5924 5923 5922 5921 5921 5920 5918 5917 5916 5916 5915 5913 5912 5910 5908 5907 5905 5903 5901 5899 5896 5894 5892 5891 5889 5887 5885 5883 5882 5880 5878 5877 5876 5875 5874 5873 5872 5872 5871 5871 5871
5922 5923 5924 5923 5923 5923 5923 5922 5921 5921 5921 5920 5919 5918 5917 5916 5915 5915 5914 5912 5911 5910 5908 5906 5904 5902 5900 5898 5896 5894 5892 5890 5887 5886 5884 5882 5880 5879 5877 5875 5874 5873 5872 5871 5871 5870 5869 5869 5869
5920 5920 5921 5921 5920 5920 5920 5920 5920 5919 5919 5918 5917 5917 5916 5915 5914 5913 5912 5911 5910 5908 5906 5904 5903 5901 5899 5896 5894 5892 5891 5888 5886 5884 5882 5880 5878 5877 5875 5874 5872 5871 5870 5869 5869 5868 5867 5867 5866
5917 5917 5917 5918 5918 5918 5917 5920 5918 5917 5917 5916 5916 5915 5915 5913 5912 5911 5910 5908 5907 5905 5904 5903 5901 5899 5897 5895 5893 5891 5889 5886 5884 5882 5880 5878 5876 5875 5873 5871 5870 5869 5868 5867 5866 5865 5865 5864 5863
5912 5913 5914 5915 5915 5915 5915 5918 5915 5914 5914 5914 5913 5913 5912 5911 5910 5908 5907 5906 5905 5903 5901 5900 5899 5897 5894 5892 5890 5888 5886 5883 5882 5880 5878 5876 5874 5872 5870 5869 5867 5866 5865 5864 5863 5862 5862 5861 5860